www.pogodaiklimat.ru

Погода и климат >> Архив погоды >> Россия >> Краснодарский край >> Кущевская


ПОГОДА в Кущевской

  • Прогноз погоды в Кущевской
  • Монитор погоды в Кущевской

АРХИВ ПОГОДЫ в Кущевской

Время (UTC), дата Ветер
(напр.,м/с)
 
Видим.   Явления Облачность Т
(С)
Тd
(С)
f
(%)
Тe
(С)
Тes
(С)
Комфортность P
(гПа)
Po
(гПа)
Тmin
(С)
Tmax
(С)
R
(мм)
R24
(мм)
S
(см)
06 17.07 ЮЗ 1 10 км 10/0
[Ci]
+23.9 +17.8 69 +28 +37 душно 1008.2 1005.6
09 17.07 З 2 10 км 10/8 600 м
[Cu med, cong Ci sp]
+27.1 +16.1 51 +30 +33 душно 1007.6 1005.1
12 17.07 СЗ 2 10 км 10/8 600 м
[Cu med, cong Ci fib]
+28.6 +13.8 40 +30 +32 жарко 1007.1 1004.6
15 17.07 СЗ 1 10 км 10/5 600 м
[Cu med, cong Ci fib]
+28.1 +13.4 40 +30 +31 жарко 1006.7 1004.2 +29.6
18 17.07 штиль 0 10 км ясно +20.7 +14.9 69 +23 +23 комфорт 1007.6 1005.1
21 17.07 штиль 0 4000 м дымка 3/3 600 м
[Cu med, cong]
+17.8 +15.8 88 +18 +18 1007.8 1005.2
00 18.07 З 1 4000 м дымка ясно +16.6 +14.6 88 +17 +17 1007.8 1005.2
03 18.07 штиль 0 4000 м дымка 9/9 600 м
[Sc]
+16.8 +15.5 92 +17 +17 1008.1 1005.5 +15.4
06 18.07 СВ 1 4000 м слаб. ливневой дождь 10/10 600 м
[Cb cap]
+20.3 +17.7 85 +25 +25 комфорт 1008.2 1005.7
09 18.07 В 1 10 км {ливн. осадки} 10/10 600 м
[Sc diur, vesp]
+22.8 +16.5 68 +27 +27 душно 1009.4 1006.8
12 18.07 В 1 4000 м слаб. ливневой дождь 10/10 600 м
[Cb cap]
+20.8 +18.3 86 +26 +26 душно 1010.0 1007.4
15 18.07 В 1 10 км {ливн. осадки} 10/10 1000 м
[Sc]
+21.6 +17.5 77 +26 +26 душно 1010.4 1007.8 +23.7 0.4
18 18.07 штиль 0 4000 м дымка {ливн. осадки} 4/4 1000 м
[Sc]
+18.6 +16.7 89 +19 +19 1011.4 1008.8
21 18.07 штиль 0 4000 м дымка ясно +16.2 +15.1 93 +16 +16 1012.3 1009.7
00 19.07 штиль 0 4000 м дымка ясно +15.2 +14.3 94 +15 +15 1012.8 1010.2
03 19.07 Ю 1 500 м туман ?/? +15.1 +14.3 95 +16 +16 1013.9 1011.3 +14.9
06 19.07 ЮЗ 1 10 км {туман} 10/0
[Ci sp]
+22.3 +18.5 79 +28 +37 душно 1014.7 1012.1
09 19.07 ЮЗ 1 10 км 8/0
[Ci sp]
+27.5 +16.5 51 +31 +49 душно 1014.5 1012.0
12 19.07 З 2 10 км 6/6 1000 м
[Cu med, cong]
+30.4 +12.1 32 +31 +36 жарко 1013.7 1011.2
15 19.07 З 2 10 км 4/4 1000 м
[Cu med, cong]
+29.3 +8.9 28 +29 +30 жарко 1014.0 1011.5 +30.9
18 19.07 СЗ 1 10 км ясно +22.3 +13.9 59 +25 +25 комфорт 1015.5 1012.9
21 19.07 З 1 10 км ясно +17.3 +13.7 79 +18 +18 1016.5 1013.9
00 20.07 З 1 4000 м дымка ясно +16.4 +14.5 89 +17 +17 1016.8 1014.2
03 20.07 штиль 0 4000 м дымка ясно +15.7 +14.6 93 +15 +17 1018.0 1015.3 +15.0
06 20.07 СВ 1 10 км ясно +27.2 +13.4 43 +29 +41 жарко 1018.4 1015.9
09 20.07 С 1 10 км 3/0
[Ci sp]
+30.5 +8.9 26 +30 +49 жарко 1018.1 1015.5
12 20.07 С 1 10 км 4/4 1000 м
[Cu med, cong]
+31.9 +9.3 25 +31 +40 жарко 1017.3 1014.8
15 20.07 С 1 10 км 4/4 1000 м
[Cu med, cong]
+31.3 +10.0 27 +31 +32 жарко 1016.7 1014.2 +32.7
18 20.07 С 1 10 км 4/4 1000 м
[Sc]
+24.8 +9.3 37 +25 +25 комфорт 1017.2 1014.7
21 20.07 СВ 1 10 км 9/9 1000 м
[Sc]
+21.4 +11.3 53 +23 +23 комфорт 1017.7 1015.1
00 21.07 СВ 1 10 км 6/6 1000 м
[Sc]
+19.7 +10.8 56 +22 +22 комфорт 1017.6 1015.0
03 21.07 С 1 10 км 8/0
[Ac und]
+20.4 +11.0 55 +23 +24 комфорт 1017.4 1014.8 +18.4
06 21.07 СВ 2 10 км 10/4 1000 м
[Cu hum Ac lent Ci fib]
+26.6 +10.9 37 +27 +30 жарко 1016.9 1014.4
09 21.07 СВ 2 10 км 9/9 1000 м
[Sc]
+31.5 +13.5 33 +33 +34 жарко 1015.7 1013.2
12 21.07 В 2 10 км 10/10 1000 м
[Sc]
+30.1 +13.3 36 +32 +32 жарко 1015.0 1012.5
15 21.07 З 1 10 км {ливн. осадки} 10/10 600 м
[Sc diur, vesp]
+24.7 +17.3 63 +29 +29 душно 1015.2 1012.7 +32.9 0.0
18 21.07 ЮВ 2 10 км слаб. ливневой дождь 10/10 600 м
[Cb cap]
+20.9 +17.8 82 +26 +26 душно 1016.7 1014.1
21 21.07 штиль 0 4000 м дымка {ливн. осадки} 10/10 1000 м
[Sc diur, vesp]
+19.2 +17.7 91 +21 +21 комфорт 1017.2 1014.6
00 22.07 штиль 0 4000 м дымка {ливн. осадки} 3/3 1000 м
[Sc diur, vesp]
+18.0 +16.8 93 +18 +18 1017.9 1015.3
03 22.07 штиль 0 4000 м дымка ясно +17.7 +16.7 94 +18 +19 1017.7 1015.1 +17.2 0.5
06 22.07 ЮЗ 1 10 км ясно +24.7 +17.2 63 +29 +40 душно 1017.1 1014.6
09 22.07 З 1 10 км 3/3 1000 м
[Cu hum]
+29.0 +16.0 45 +32 +47 душно 1016.2 1013.7
12 22.07 В 1 10 км 6/6 1000 м
[Cu med, cong]
+31.8 +12.5 31 +32 +38 жарко 1015.0 1012.5
15 22.07 С 1 10 км 8/8 600 м
[Cb calv]
+30.2 +13.1 35 +31 +32 жарко 1014.5 1012.0 +32.7
18 22.07 Ю 1 10 км ясно +22.8 +14.6 60 +26 +26 жарко 1014.8 1012.2
21 22.07 штиль 0 10 км ясно +20.3 +15.4 73 +23 +23 комфорт 1014.9 1012.3
00 23.07 СЗ 1 4000 м дымка ясно +18.1 +15.9 87 +19 +19 1014.0 1011.4
03 23.07 штиль 0 4000 м дымка ясно +17.3 +16.0 92 +17 +18 1013.3 1010.7 +16.8
06 23.07 В 1 10 км ясно +28.4 +15.9 47 +32 +43 душно 1012.7 1010.2
09 23.07 ЮВ 2 10 км 4/4 1000 м
[Cu med, cong]
+31.9 +12.8 31 +33 +43 жарко 1011.5 1009.0
12 23.07 ЮВ 2 10 км 4/4 1000 м
[Cu med, cong]
+32.7 +11.0 27 +33 +40 жарко 1009.8 1007.3
15 23.07 ЮВ 2 10 км 1/1 1000 м
[Cu hum]
+31.2 +11.6 30 +32 +33 жарко 1009.3 1006.8 +33.0
18 23.07 штиль 0 10 км 1/0
[Ac trans]
+23.8 +14.1 55 +26 +26 жарко 1010.0 1007.5
21 23.07 штиль 0 10 км ясно +19.3 +14.7 75 +21 +21 комфорт 1009.6 1007.0
03 24.07 штиль 0 4000 м дымка 3/0
[Ac trans]
+17.6 +15.8 89 +18 +18 1009.0 1006.4 +16.7

 

Местоположение метеостанции Кущевская (Краснодарский край, Россия): широта 46.53 долгота 39.62 высота над уровнем моря 22 м.

В архиве по умолчанию представлена погода в Кущевской за последнюю неделю. Архивные данные за месяц целиком и за предыдущие месяцы, начиная с января 2011 года, Вы можете получить, выбрав интересующий диапазон дат из раскрывающегося списка и нажав кнопку "Ввод!".


*Определитесь, кто Вы:
робот инопланетянин человек

Внимание! Время в таблицах - всемирное. Для получения местного времени необходимо прибавить поправку, которая равна 3 ч.

Смотрите также архив погоды в соседних городах и на ближайших метеорологических станциях:

Погода в Староминская (Краснодарский край, Россия) (46 км)
Погода в Сосыке (Краснодарский край, Россия) (47 км)
Погода в Зерноград (Ростовская область, Россия) (64 км)
Погода в Каневской (Краснодарский край, Россия) (72 км)
Погода в Маргаритово (Ростовская область, Россия) (72 км)
Погода в Тихорецке (Краснодарский край, Россия) (84 км)
Погода в Ростове-на-Дону (Ростовская область, Россия) (84 км)
Погода в Таганроге (Ростовская область, Россия) (92 км)
Погода в Ейске (Краснодарский край, Россия) (107 км)
Погода в Белой Глине (Краснодарский край, Россия) (109 км)

Пояснения к столбцам:

Ветер - указаны скорость ветра в м/с - средняя за 10 мин, порывы в срок и между сроками (в фигурных скобках) и направление, откуда дует ветер: С - северный, СВ - северо-восточный, В - восточный, ЮВ - юго-восточный, Ю - южный, ЮЗ - юго-западный, З - западный, СЗ - северо-западный.
Видимость - горизонтальная дальность видимости в метрах или километрах. При видимости от 1 до 10 км при отсутствии осадков обычно наблюдается дымка, при ухудшении видимости до 1 км и менее - туман. В сухую погоду видимость может ухудшаться дымом, пылью или мглою.
Явления - указаны атмосферные явления, наблюдавшиеся в срок или в последний час перед сроком; фигурными скобками обозначены явления, наблюдавшиеся между сроками (за 1-3 часа до срока); квадратными скобками обозначены град или гололедные отложения с указанием их диаметра в мм.
Облачность - указаны через наклонную черту общая и нижняя облачность в баллах и высота нижней границы облаков в метрах; квадратными скобками обозначены формы облаков: Ci - перистые, Cs - перисто-слоистые, Cc - перисто-кучевые, Ac - высококучевые, As - высокослоистые, Sc - слоисто-кучевые, Ns - слоисто-дождевые, Cu - кучевые, Cb - кучево-дождевые. Подробнее классификацию облаков см. в Атласе облаков (PDF).
T - Температура воздуха - температура, измеренная на высоте 2 м над землей.
Td - Температура точки росы - температура, при понижении до которой содержащийся в воздухе водяной пар достигнет насыщения.
f - Относительная влажность воздуха - влажноcть воздуха, измеренная на высоте 2 м над землей.
Te - Эффективная температура - температура, которую ощущает одетый по сезону человек в тени. Характеристика душности погоды. При расчете учитывается влияние влажности воздуха и скорости ветра на теплоощущения человека.
Tes - Эффективная температура на солнце - температура, которую ощущает человек, с поправкой на солнечный нагрев. Характеристика знойности погоды. Зависит от высоты солнца над горизонтом, облачности и скорости ветра. Ночью, в пасмурную погоду, а также при ветре 12 м/с и более поправка равна нулю.
P - Атмосферное давление - приведенное к уровню моря атмосферное давление.
Po - Атмосферное давление - измеренное на уровне метеостанции атмосферное давление.
Tmin - Минимальная температура - минимум температуры воздуха на высоте 2 м над землей.
Tmax - Максимальная температура - максимум температуры воздуха на высоте 2 м над землей.
R - Количество осадков - Количество выпавших осадков за период времени, мм. При наведении курсора мыши на число - период времени, за который выпало указанное количество осадков.
R24 - Количество осадков - Количество выпавших осадков за 24 часа, мм.
S - Снежный покров - Высота снежного покрова, см. При наведении курсора мыши на число - состояние снежного покрова и степень покрытия местности в баллах.